Year,Month,Day,Hour,Minute,Value (Times are PST for temperature in C)
2007,07,13,00,00,18.10
2007,07,13,00,01,18.10
2007,07,13,00,02,18.00
2007,07,13,00,03,17.90
2007,07,13,00,04,17.90
2007,07,13,00,05,17.90
2007,07,13,00,06,17.90
2007,07,13,00,07,17.90
2007,07,13,00,08,17.90
2007,07,13,00,09,17.90
2007,07,13,00,10,17.90
2007,07,13,00,11,17.90
2007,07,13,00,12,17.90
2007,07,13,00,13,17.90
2007,07,13,00,14,17.90
2007,07,13,00,15,17.90
2007,07,13,00,16,17.90
2007,07,13,00,17,17.90
2007,07,13,00,18,17.90
2007,07,13,00,19,17.90
2007,07,13,00,20,17.90
2007,07,13,00,21,17.90
2007,07,13,00,22,17.90
2007,07,13,00,23,17.90
2007,07,13,00,24,17.90
2007,07,13,00,25,17.90
2007,07,13,00,26,17.90
2007,07,13,00,27,17.90
2007,07,13,00,28,17.90
2007,07,13,00,29,17.90
2007,07,13,00,30,17.90
2007,07,13,00,31,17.90
2007,07,13,00,32,17.90
2007,07,13,00,33,17.90
2007,07,13,00,34,17.80
2007,07,13,00,35,17.80
2007,07,13,00,36,17.80
2007,07,13,00,37,17.80
2007,07,13,00,38,17.80
2007,07,13,00,39,17.80
2007,07,13,00,40,17.80
2007,07,13,00,41,17.80
2007,07,13,00,42,17.80
2007,07,13,00,43,17.80
2007,07,13,00,44,17.80
2007,07,13,00,45,17.80
2007,07,13,00,46,17.80
2007,07,13,00,47,17.80
2007,07,13,00,48,17.80
2007,07,13,00,49,17.70
2007,07,13,00,50,17.70
2007,07,13,00,51,17.70
2007,07,13,00,52,17.70
2007,07,13,00,53,17.70
2007,07,13,00,54,17.70
2007,07,13,00,55,17.70
2007,07,13,00,56,17.70
2007,07,13,00,57,17.70
2007,07,13,00,58,17.70
2007,07,13,00,59,17.70
2007,07,13,01,00,17.60
2007,07,13,01,01,17.60
2007,07,13,01,02,17.60
2007,07,13,01,03,17.60
2007,07,13,01,04,17.60
2007,07,13,01,05,17.60
2007,07,13,01,06,17.60
2007,07,13,01,07,17.60
2007,07,13,01,08,17.60
2007,07,13,01,09,17.60
2007,07,13,01,10,17.60
2007,07,13,01,11,17.60
2007,07,13,01,12,17.60
2007,07,13,01,13,17.60
2007,07,13,01,14,17.60
2007,07,13,01,15,17.60
2007,07,13,01,16,17.50
2007,07,13,01,17,17.50
2007,07,13,01,18,17.50
2007,07,13,01,19,17.50
2007,07,13,01,20,17.40
2007,07,13,01,21,17.40
2007,07,13,01,22,17.40
2007,07,13,01,23,17.40
2007,07,13,01,24,17.30
2007,07,13,01,25,17.30
2007,07,13,01,26,17.30
2007,07,13,01,27,17.30
2007,07,13,01,28,17.30
2007,07,13,01,29,17.30
2007,07,13,01,30,17.30
2007,07,13,01,31,17.30
2007,07,13,01,32,17.30
2007,07,13,01,33,17.30
2007,07,13,01,34,17.20
2007,07,13,01,35,17.20
2007,07,13,01,36,17.20
2007,07,13,01,37,17.20
2007,07,13,01,38,17.10
2007,07,13,01,39,17.10
2007,07,13,01,40,17.10
2007,07,13,01,41,17.10
2007,07,13,01,42,17.00
2007,07,13,01,43,17.00
2007,07,13,01,44,17.00
2007,07,13,01,45,17.00
2007,07,13,01,46,17.00
2007,07,13,01,47,16.90
2007,07,13,01,48,16.90
2007,07,13,01,49,16.90
2007,07,13,01,50,16.90
2007,07,13,01,51,16.80
2007,07,13,01,52,16.80
2007,07,13,01,53,16.80
2007,07,13,01,54,16.80
2007,07,13,01,55,16.80
2007,07,13,01,56,16.80
2007,07,13,01,57,16.80
2007,07,13,01,58,16.80
2007,07,13,01,59,16.80
2007,07,13,02,00,16.80
2007,07,13,02,01,16.80
2007,07,13,02,02,16.80
2007,07,13,02,03,16.70
2007,07,13,02,04,16.70
2007,07,13,02,05,16.70
2007,07,13,02,06,16.70
2007,07,13,02,07,16.70
2007,07,13,02,08,16.70
2007,07,13,02,09,16.70
2007,07,13,02,10,16.70
2007,07,13,02,11,16.70
2007,07,13,02,12,16.70
2007,07,13,02,13,16.70
2007,07,13,02,14,16.70
2007,07,13,02,15,16.70
2007,07,13,02,16,16.70
2007,07,13,02,17,16.70
2007,07,13,02,18,16.70
2007,07,13,02,19,16.70
2007,07,13,02,20,16.70
2007,07,13,02,21,16.70
2007,07,13,02,22,16.70
2007,07,13,02,23,16.70
2007,07,13,02,24,16.70
2007,07,13,02,25,16.70
2007,07,13,02,26,16.70
2007,07,13,02,27,16.70
2007,07,13,02,28,16.70
2007,07,13,02,29,16.70
2007,07,13,02,30,16.80
2007,07,13,02,31,16.80
2007,07,13,02,32,16.80
2007,07,13,02,33,16.80
2007,07,13,02,34,16.90
2007,07,13,02,35,16.90
2007,07,13,02,36,16.90
2007,07,13,02,37,16.90
2007,07,13,02,38,16.90
2007,07,13,02,39,16.90
2007,07,13,02,40,16.80
2007,07,13,02,41,16.80
2007,07,13,02,42,16.80
2007,07,13,02,43,16.80
2007,07,13,02,44,16.80
2007,07,13,02,45,16.80
2007,07,13,02,46,16.80
2007,07,13,02,47,16.70
2007,07,13,02,48,16.70
2007,07,13,02,49,16.70
2007,07,13,02,50,16.70
2007,07,13,02,51,16.70
2007,07,13,02,52,16.70
2007,07,13,02,53,16.70
2007,07,13,02,54,16.70
2007,07,13,02,55,16.70
2007,07,13,02,56,16.70
2007,07,13,02,57,16.70
2007,07,13,02,58,16.70
2007,07,13,02,59,16.70
2007,07,13,03,00,16.70
2007,07,13,03,01,16.70
2007,07,13,03,02,16.70
2007,07,13,03,03,16.70
2007,07,13,03,04,16.70
2007,07,13,03,05,16.70
2007,07,13,03,06,16.70
2007,07,13,03,07,16.70
2007,07,13,03,08,16.70
2007,07,13,03,09,16.70
2007,07,13,03,10,16.70
2007,07,13,03,11,16.70
2007,07,13,03,12,16.70
2007,07,13,03,13,16.70
2007,07,13,03,14,16.70
2007,07,13,03,15,16.70
2007,07,13,03,16,16.70
2007,07,13,03,17,16.70
2007,07,13,03,18,16.70
2007,07,13,03,19,16.70
2007,07,13,03,20,16.70
2007,07,13,03,21,16.70
2007,07,13,03,22,16.70
2007,07,13,03,23,16.70
2007,07,13,03,24,16.60
2007,07,13,03,25,16.60
2007,07,13,03,26,16.70
2007,07,13,03,27,16.70
2007,07,13,03,28,16.70
2007,07,13,03,29,16.70
2007,07,13,03,30,16.70
2007,07,13,03,31,16.70
2007,07,13,03,32,16.70
2007,07,13,03,33,16.70
2007,07,13,03,34,16.70
2007,07,13,03,35,16.70
2007,07,13,03,36,16.70
2007,07,13,03,37,16.70
2007,07,13,03,38,16.70
2007,07,13,03,39,16.60
2007,07,13,03,40,16.60
2007,07,13,03,41,16.60
2007,07,13,03,42,16.60
2007,07,13,03,43,16.60
2007,07,13,03,44,16.60
2007,07,13,03,45,16.60
2007,07,13,03,46,16.60
2007,07,13,03,47,16.60
2007,07,13,03,48,16.60
2007,07,13,03,49,16.60
2007,07,13,03,50,16.60
2007,07,13,03,51,16.70
2007,07,13,03,52,16.70
2007,07,13,03,53,16.70
2007,07,13,03,54,16.70
2007,07,13,03,55,16.70
2007,07,13,03,56,16.70
2007,07,13,03,57,16.70
2007,07,13,03,58,16.70
2007,07,13,03,59,16.70
2007,07,13,04,00,16.70
2007,07,13,04,01,16.70
2007,07,13,04,02,16.70
2007,07,13,04,03,16.70
2007,07,13,04,04,16.70
2007,07,13,04,05,16.70
2007,07,13,04,06,16.70
2007,07,13,04,07,16.70
2007,07,13,04,08,16.70
2007,07,13,04,09,16.70
2007,07,13,04,10,16.70
2007,07,13,04,11,16.70
2007,07,13,04,12,16.70
2007,07,13,04,13,16.70
2007,07,13,04,14,16.70
2007,07,13,04,15,16.70
2007,07,13,04,16,16.70
2007,07,13,04,17,16.70
2007,07,13,04,18,16.70
2007,07,13,04,19,16.70
2007,07,13,04,20,16.60
2007,07,13,04,21,16.60
2007,07,13,04,22,16.60
2007,07,13,04,23,16.60
2007,07,13,04,24,16.60
2007,07,13,04,25,16.60
2007,07,13,04,26,16.60
2007,07,13,04,27,16.60
2007,07,13,04,28,16.60
2007,07,13,04,29,16.60
2007,07,13,04,30,16.50
2007,07,13,04,31,16.40
2007,07,13,04,32,16.40
2007,07,13,04,33,16.40
2007,07,13,04,34,16.40
2007,07,13,04,35,16.40
2007,07,13,04,36,16.40
2007,07,13,04,37,16.30
2007,07,13,04,38,16.30
2007,07,13,04,39,16.20
2007,07,13,04,40,16.20
2007,07,13,04,41,16.10
2007,07,13,04,42,16.10
2007,07,13,04,43,16.10
2007,07,13,04,44,16.10
2007,07,13,04,45,16.10
2007,07,13,04,46,16.10
2007,07,13,04,47,16.10
2007,07,13,04,48,16.00
2007,07,13,04,49,15.90
2007,07,13,04,50,15.90
2007,07,13,04,51,15.90
2007,07,13,04,52,15.90
2007,07,13,04,53,15.90
2007,07,13,04,54,15.90
2007,07,13,04,55,15.90
2007,07,13,04,56,15.90
2007,07,13,04,57,15.90
2007,07,13,04,58,15.90
2007,07,13,04,59,16.00
2007,07,13,05,00,16.00
2007,07,13,05,01,15.90
2007,07,13,05,02,15.90
2007,07,13,05,03,15.90
2007,07,13,05,04,16.00
2007,07,13,05,05,16.10
2007,07,13,05,06,16.10
2007,07,13,05,07,16.10
2007,07,13,05,08,16.10
2007,07,13,05,09,16.10
2007,07,13,05,10,16.10
2007,07,13,05,11,16.10
2007,07,13,05,12,16.10
2007,07,13,05,13,16.10
2007,07,13,05,14,16.10
2007,07,13,05,15,16.10
2007,07,13,05,16,16.10
2007,07,13,05,17,16.10
2007,07,13,05,18,16.10
2007,07,13,05,19,16.10
2007,07,13,05,20,16.10
2007,07,13,05,21,15.90
2007,07,13,05,22,15.90
2007,07,13,05,23,15.90
2007,07,13,05,24,15.90
2007,07,13,05,25,16.00
2007,07,13,05,26,16.10
2007,07,13,05,27,16.10
2007,07,13,05,28,16.10
2007,07,13,05,29,16.10
2007,07,13,05,30,16.10
2007,07,13,05,31,16.10
2007,07,13,05,32,16.10
2007,07,13,05,33,16.10
2007,07,13,05,34,16.10
2007,07,13,05,35,16.10
2007,07,13,05,36,16.10
2007,07,13,05,37,16.10
2007,07,13,05,38,16.10
2007,07,13,05,39,16.10
2007,07,13,05,40,16.10
2007,07,13,05,41,16.10
2007,07,13,05,42,16.10
2007,07,13,05,43,16.10
2007,07,13,05,44,16.10
2007,07,13,05,45,16.10
2007,07,13,05,46,16.10
2007,07,13,05,47,16.10
2007,07,13,05,48,15.90
2007,07,13,05,49,15.90
2007,07,13,05,50,15.90
2007,07,13,05,51,15.90
2007,07,13,05,52,15.90
2007,07,13,05,53,15.90
2007,07,13,05,54,15.90
2007,07,13,05,55,15.90
2007,07,13,05,56,15.90
2007,07,13,05,57,15.90
2007,07,13,05,58,15.90
2007,07,13,05,59,15.90
2007,07,13,06,00,15.90
2007,07,13,06,01,15.90
2007,07,13,06,02,15.80
2007,07,13,06,03,15.80
2007,07,13,06,04,15.80
2007,07,13,06,05,15.80
2007,07,13,06,06,15.80
2007,07,13,06,07,15.80
2007,07,13,06,08,15.80
2007,07,13,06,09,15.80
2007,07,13,06,10,15.80
2007,07,13,06,11,15.80
2007,07,13,06,12,15.80
2007,07,13,06,13,15.80
2007,07,13,06,14,15.90
2007,07,13,06,15,15.90
2007,07,13,06,16,15.90
2007,07,13,06,17,15.80
2007,07,13,06,18,15.80
2007,07,13,06,19,15.80
2007,07,13,06,20,15.80
2007,07,13,06,21,15.80
2007,07,13,06,22,15.80
2007,07,13,06,23,15.80
2007,07,13,06,24,15.80
2007,07,13,06,25,15.80
2007,07,13,06,26,15.80
2007,07,13,06,27,15.80
2007,07,13,06,28,15.80
2007,07,13,06,29,15.80
2007,07,13,06,30,15.80
2007,07,13,06,31,15.80
2007,07,13,06,32,15.80
2007,07,13,06,33,15.80
2007,07,13,06,34,15.80
2007,07,13,06,35,15.80
2007,07,13,06,36,15.80
2007,07,13,06,37,15.80
2007,07,13,06,38,15.80
2007,07,13,06,39,15.80
2007,07,13,06,40,15.90
2007,07,13,06,41,15.90
2007,07,13,06,42,16.00
2007,07,13,06,43,16.10
2007,07,13,06,44,16.10
2007,07,13,06,45,16.20
2007,07,13,06,46,16.20
2007,07,13,06,47,16.30
2007,07,13,06,48,16.30
2007,07,13,06,49,16.40
2007,07,13,06,50,16.40
2007,07,13,06,51,16.40
2007,07,13,06,52,16.50
2007,07,13,06,53,16.60
2007,07,13,06,54,16.60
2007,07,13,06,55,16.70
2007,07,13,06,56,16.70
2007,07,13,06,57,16.70
2007,07,13,06,58,16.80
2007,07,13,06,59,16.80
2007,07,13,07,00,16.90
2007,07,13,07,01,16.90
2007,07,13,07,02,16.90
2007,07,13,07,03,17.00
2007,07,13,07,04,17.00
2007,07,13,07,05,17.10
2007,07,13,07,06,17.10
2007,07,13,07,07,17.20
2007,07,13,07,08,17.20
2007,07,13,07,09,17.30
2007,07,13,07,10,17.40
2007,07,13,07,11,17.40
2007,07,13,07,12,17.50
2007,07,13,07,13,17.50
2007,07,13,07,14,17.50
2007,07,13,07,15,17.50
2007,07,13,07,16,17.50
2007,07,13,07,17,17.50
2007,07,13,07,18,17.60
2007,07,13,07,19,17.60
2007,07,13,07,20,17.50
2007,07,13,07,21,17.60
2007,07,13,07,22,17.60
2007,07,13,07,23,17.60
2007,07,13,07,24,17.70
2007,07,13,07,25,17.70
2007,07,13,07,26,17.80
2007,07,13,07,27,17.90
2007,07,13,07,28,17.90
2007,07,13,07,29,17.90
2007,07,13,07,30,17.90
2007,07,13,07,31,17.90
2007,07,13,07,32,17.90
2007,07,13,07,33,17.90
2007,07,13,07,34,17.90
2007,07,13,07,35,17.90
2007,07,13,07,36,17.90
2007,07,13,07,37,17.90
2007,07,13,07,38,18.00
2007,07,13,07,39,18.10
2007,07,13,07,40,18.20
2007,07,13,07,41,18.20
2007,07,13,07,42,18.20
2007,07,13,07,43,18.30
2007,07,13,07,44,18.30
2007,07,13,07,45,18.30
2007,07,13,07,46,18.30
2007,07,13,07,47,18.30
2007,07,13,07,48,18.20
2007,07,13,07,49,18.20
2007,07,13,07,50,18.20
2007,07,13,07,51,18.20
2007,07,13,07,52,18.20
2007,07,13,07,53,18.30
2007,07,13,07,54,18.30
2007,07,13,07,55,18.40
2007,07,13,07,56,18.40
2007,07,13,07,57,18.50
2007,07,13,07,58,18.60
2007,07,13,07,59,18.70
2007,07,13,08,00,18.80
2007,07,13,08,01,18.90
2007,07,13,08,02,18.90
2007,07,13,08,03,18.90
2007,07,13,08,04,18.90
2007,07,13,08,05,18.90
2007,07,13,08,06,19.00
2007,07,13,08,07,19.10
2007,07,13,08,08,19.10
2007,07,13,08,09,19.20
2007,07,13,08,10,19.20
2007,07,13,08,11,19.30
2007,07,13,08,12,19.30
2007,07,13,08,13,19.40
2007,07,13,08,14,19.40
2007,07,13,08,15,19.40
2007,07,13,08,16,19.40
2007,07,13,08,17,19.40
2007,07,13,08,18,19.50
2007,07,13,08,19,19.50
2007,07,13,08,20,19.50
2007,07,13,08,21,19.50
2007,07,13,08,22,19.50
2007,07,13,08,23,19.50
2007,07,13,08,24,19.60
2007,07,13,08,25,19.70
2007,07,13,08,26,19.70
2007,07,13,08,27,19.70
2007,07,13,08,28,19.80
2007,07,13,08,29,19.80
2007,07,13,08,30,19.90
2007,07,13,08,31,19.90
2007,07,13,08,32,19.90
2007,07,13,08,33,20.00
2007,07,13,08,34,20.10
2007,07,13,08,35,20.20
2007,07,13,08,36,20.10
2007,07,13,08,37,20.10
2007,07,13,08,38,20.10
2007,07,13,08,39,20.20
2007,07,13,08,40,20.20
2007,07,13,08,41,20.20
2007,07,13,08,42,20.20
2007,07,13,08,43,20.30
2007,07,13,08,44,20.30
2007,07,13,08,45,20.30
2007,07,13,08,46,20.20
2007,07,13,08,47,20.10
2007,07,13,08,48,20.10
2007,07,13,08,49,20.10
2007,07,13,08,50,20.20
2007,07,13,08,51,20.20
2007,07,13,08,52,20.30
2007,07,13,08,53,20.30
2007,07,13,08,54,20.30
2007,07,13,08,55,20.40
2007,07,13,08,56,20.40
2007,07,13,08,57,20.50
2007,07,13,08,58,20.60
2007,07,13,08,59,20.60
2007,07,13,09,00,20.70
2007,07,13,09,01,20.70
2007,07,13,09,02,20.60
2007,07,13,09,03,20.60
2007,07,13,09,04,20.50
2007,07,13,09,05,20.50
2007,07,13,09,06,20.40
2007,07,13,09,07,20.40
2007,07,13,09,08,20.40
2007,07,13,09,09,20.40
2007,07,13,09,10,20.50
2007,07,13,09,11,20.60
2007,07,13,09,12,20.60
2007,07,13,09,13,20.60
2007,07,13,09,14,20.60
2007,07,13,09,15,20.70
2007,07,13,09,16,20.80
2007,07,13,09,17,20.90
2007,07,13,09,18,21.00
2007,07,13,09,19,21.10
2007,07,13,09,20,21.20
2007,07,13,09,21,21.30
2007,07,13,09,22,21.30
2007,07,13,09,23,21.30
2007,07,13,09,24,21.40
2007,07,13,09,25,21.40
2007,07,13,09,26,21.40
2007,07,13,09,27,21.30
2007,07,13,09,28,21.20
2007,07,13,09,29,21.10
2007,07,13,09,30,21.00
2007,07,13,09,31,21.00
2007,07,13,09,32,21.00
2007,07,13,09,33,21.10
2007,07,13,09,34,21.10
2007,07,13,09,35,21.00
2007,07,13,09,36,21.00
2007,07,13,09,37,21.00
2007,07,13,09,38,21.00
2007,07,13,09,39,21.00
2007,07,13,09,40,21.10
2007,07,13,09,41,21.00
2007,07,13,09,42,21.00
2007,07,13,09,43,21.00
2007,07,13,09,44,20.90
2007,07,13,09,45,20.90
2007,07,13,09,46,20.90
2007,07,13,09,47,20.90
2007,07,13,09,48,21.00
2007,07,13,09,49,21.00
2007,07,13,09,50,21.10
2007,07,13,09,51,21.20
2007,07,13,09,52,21.20
2007,07,13,09,53,21.20
2007,07,13,09,54,21.20
2007,07,13,09,55,21.20
2007,07,13,09,56,21.20
2007,07,13,09,57,21.20
2007,07,13,09,58,21.20
2007,07,13,09,59,21.20
2007,07,13,10,00,21.30
2007,07,13,10,01,21.30
2007,07,13,10,02,21.40
2007,07,13,10,03,21.50
2007,07,13,10,04,21.60
2007,07,13,10,05,21.60
2007,07,13,10,06,21.70
2007,07,13,10,07,21.80
2007,07,13,10,08,21.90
2007,07,13,10,09,21.90
2007,07,13,10,10,21.90
2007,07,13,10,11,21.90
2007,07,13,10,12,21.90
2007,07,13,10,13,21.80
2007,07,13,10,14,21.80
2007,07,13,10,15,21.70
2007,07,13,10,16,21.70
2007,07,13,10,17,21.70
2007,07,13,10,18,21.60
2007,07,13,10,19,21.60
2007,07,13,10,20,21.60
2007,07,13,10,21,21.70
2007,07,13,10,22,21.70
2007,07,13,10,23,21.80
2007,07,13,10,24,21.80
2007,07,13,10,25,21.80
2007,07,13,10,26,21.80
2007,07,13,10,27,21.80
2007,07,13,10,28,21.80
2007,07,13,10,29,21.70
2007,07,13,10,30,21.70
2007,07,13,10,31,21.70
2007,07,13,10,32,21.70
2007,07,13,10,33,21.70
2007,07,13,10,34,21.60
2007,07,13,10,35,21.60
2007,07,13,10,36,21.60
2007,07,13,10,37,21.50
2007,07,13,10,38,21.40
2007,07,13,10,39,21.30
2007,07,13,10,40,21.30
2007,07,13,10,41,21.30
2007,07,13,10,42,21.30
2007,07,13,10,43,21.20
2007,07,13,10,44,21.20
2007,07,13,10,45,21.20
2007,07,13,10,46,21.20
2007,07,13,10,47,21.30
2007,07,13,10,48,21.30
2007,07,13,10,49,21.20
2007,07,13,10,50,21.00
2007,07,13,10,51,20.90
2007,07,13,10,52,20.70
2007,07,13,10,53,20.60
2007,07,13,10,54,20.60
2007,07,13,10,55,20.60
2007,07,13,10,56,20.60
2007,07,13,10,57,20.50
2007,07,13,10,58,20.50
2007,07,13,10,59,20.40
2007,07,13,11,00,20.30
2007,07,13,11,01,20.20
2007,07,13,11,02,20.20
2007,07,13,11,03,20.20
2007,07,13,11,04,20.00
2007,07,13,11,05,19.90
2007,07,13,11,06,19.90
2007,07,13,11,07,19.80
2007,07,13,11,08,19.60
2007,07,13,11,09,19.60
2007,07,13,11,10,19.60
2007,07,13,11,11,19.60
2007,07,13,11,12,19.60
2007,07,13,11,13,19.60
2007,07,13,11,14,19.40
2007,07,13,11,15,19.40
2007,07,13,11,16,19.40
2007,07,13,11,17,19.40
2007,07,13,11,18,19.30
2007,07,13,11,19,19.30
2007,07,13,11,20,19.30
2007,07,13,11,21,19.30
2007,07,13,11,22,19.30
2007,07,13,11,23,19.40
2007,07,13,11,24,19.50
2007,07,13,11,25,19.70
2007,07,13,11,26,19.80
2007,07,13,11,27,19.80
2007,07,13,11,28,19.90
2007,07,13,11,29,19.90
2007,07,13,11,30,19.90
2007,07,13,11,31,20.10
2007,07,13,11,32,20.10
2007,07,13,11,33,20.10
2007,07,13,11,34,20.20
2007,07,13,11,35,20.30
2007,07,13,11,36,20.30
2007,07,13,11,37,20.40
2007,07,13,11,38,20.50
2007,07,13,11,39,20.50
2007,07,13,11,40,20.40
2007,07,13,11,41,20.30
2007,07,13,11,42,20.20
2007,07,13,11,43,20.20
2007,07,13,11,44,20.10
2007,07,13,11,45,20.10
2007,07,13,11,46,20.10
2007,07,13,11,47,20.00
2007,07,13,11,48,19.90
2007,07,13,11,49,19.90
2007,07,13,11,50,19.80
2007,07,13,11,51,19.70
2007,07,13,11,52,19.60
2007,07,13,11,53,19.50
2007,07,13,11,54,19.50
2007,07,13,11,55,19.50
2007,07,13,11,56,19.60
2007,07,13,11,57,19.70
2007,07,13,11,58,19.70
2007,07,13,11,59,19.80
2007,07,13,12,00,19.70
2007,07,13,12,01,19.70
2007,07,13,12,02,19.70
2007,07,13,12,03,19.70
2007,07,13,12,04,19.80
2007,07,13,12,05,19.80
2007,07,13,12,06,19.80
2007,07,13,12,07,19.70
2007,07,13,12,08,19.60
2007,07,13,12,09,19.60
2007,07,13,12,10,19.60
2007,07,13,12,11,19.60
2007,07,13,12,12,19.50
2007,07,13,12,13,19.40
2007,07,13,12,14,19.40
2007,07,13,12,15,19.30
2007,07,13,12,16,19.30
2007,07,13,12,17,19.40
2007,07,13,12,18,19.50
2007,07,13,12,19,19.60
2007,07,13,12,20,19.50
2007,07,13,12,21,19.40
2007,07,13,12,22,19.20
2007,07,13,12,23,19.10
2007,07,13,12,24,19.10
2007,07,13,12,25,18.90
2007,07,13,12,26,18.90
2007,07,13,12,27,18.80
2007,07,13,12,28,18.50
2007,07,13,12,29,18.30
2007,07,13,12,30,18.20
2007,07,13,12,31,18.20
2007,07,13,12,32,18.30
2007,07,13,12,33,18.30
2007,07,13,12,34,18.20
2007,07,13,12,35,18.20
2007,07,13,12,36,18.00
2007,07,13,12,37,17.90
2007,07,13,12,38,18.00
2007,07,13,12,39,18.20
2007,07,13,12,40,18.20
2007,07,13,12,41,18.20
2007,07,13,12,42,18.10
2007,07,13,12,43,17.90
2007,07,13,12,44,17.80
2007,07,13,12,45,17.60
2007,07,13,12,46,17.50
2007,07,13,12,47,17.50
2007,07,13,12,48,17.40
2007,07,13,12,49,17.40
2007,07,13,12,50,17.50
2007,07,13,12,51,17.50
2007,07,13,12,52,17.50
2007,07,13,12,53,17.50
2007,07,13,12,54,17.50
2007,07,13,12,55,17.60
2007,07,13,12,56,17.60
2007,07,13,12,57,17.50
2007,07,13,12,58,17.50
2007,07,13,12,59,17.50
2007,07,13,13,00,17.50
2007,07,13,13,01,17.40
2007,07,13,13,02,17.30
2007,07,13,13,03,17.30
2007,07,13,13,04,17.20
2007,07,13,13,05,17.10
2007,07,13,13,06,17.00
2007,07,13,13,07,16.90
2007,07,13,13,08,16.80
2007,07,13,13,09,16.70
2007,07,13,13,10,16.70
2007,07,13,13,11,16.80
2007,07,13,13,12,16.80
2007,07,13,13,13,16.90
2007,07,13,13,14,17.10
2007,07,13,13,15,17.30
2007,07,13,13,16,17.30
2007,07,13,13,17,17.40
2007,07,13,13,18,17.40
2007,07,13,13,19,17.50
2007,07,13,13,20,17.50
2007,07,13,13,21,17.60
2007,07,13,13,22,17.70
2007,07,13,13,23,17.80
2007,07,13,13,24,17.90
2007,07,13,13,25,17.90
2007,07,13,13,26,18.10
2007,07,13,13,27,18.10
2007,07,13,13,28,18.20
2007,07,13,13,29,18.30
2007,07,13,13,30,18.40
2007,07,13,13,31,18.50
2007,07,13,13,32,18.60
2007,07,13,13,33,18.90
2007,07,13,13,34,19.00
2007,07,13,13,35,19.10
2007,07,13,13,36,19.10
2007,07,13,13,37,19.10
2007,07,13,13,38,19.20
2007,07,13,13,39,19.30
2007,07,13,13,40,19.30
2007,07,13,13,41,19.30
2007,07,13,13,42,19.20
2007,07,13,13,43,19.30
2007,07,13,13,44,19.30
2007,07,13,13,45,19.40
2007,07,13,13,46,19.40
2007,07,13,13,47,19.40
2007,07,13,13,48,19.50
2007,07,13,13,49,19.60
2007,07,13,13,50,19.60
2007,07,13,13,51,19.70
2007,07,13,13,52,19.70
2007,07,13,13,53,19.80
2007,07,13,13,54,19.90
2007,07,13,13,55,20.00
2007,07,13,13,56,20.10
2007,07,13,13,57,20.20
2007,07,13,13,58,20.20
2007,07,13,13,59,20.30
2007,07,13,14,00,20.50
2007,07,13,14,01,20.60
2007,07,13,14,02,20.70
2007,07,13,14,03,20.90
2007,07,13,14,04,21.00
2007,07,13,14,05,21.00
2007,07,13,14,06,21.20
2007,07,13,14,07,21.30
2007,07,13,14,08,21.50
2007,07,13,14,09,21.60
2007,07,13,14,10,21.80
2007,07,13,14,11,22.00
2007,07,13,14,12,22.20
2007,07,13,14,13,22.30
2007,07,13,14,14,22.40
2007,07,13,14,15,22.40
2007,07,13,14,16,22.40
2007,07,13,14,17,22.50
2007,07,13,14,18,22.60
2007,07,13,14,19,22.60
2007,07,13,14,20,22.60
2007,07,13,14,21,22.70
2007,07,13,14,22,22.90
2007,07,13,14,23,23.00
2007,07,13,14,24,23.20
2007,07,13,14,25,23.30
2007,07,13,14,26,23.50
2007,07,13,14,27,23.70
2007,07,13,14,28,23.70
2007,07,13,14,29,23.80
2007,07,13,14,30,23.80
2007,07,13,14,31,23.90
2007,07,13,14,32,24.00
2007,07,13,14,33,24.10
2007,07,13,14,34,24.20
2007,07,13,14,35,24.30
2007,07,13,14,36,24.40
2007,07,13,14,37,24.40
2007,07,13,14,38,24.40
2007,07,13,14,39,24.40
2007,07,13,14,40,24.40
2007,07,13,14,41,24.50
2007,07,13,14,42,24.50
2007,07,13,14,43,24.60
2007,07,13,14,44,24.60
2007,07,13,14,45,24.70
2007,07,13,14,46,24.80
2007,07,13,14,47,24.90
2007,07,13,14,48,25.00
2007,07,13,14,49,25.00
2007,07,13,14,50,25.00
2007,07,13,14,51,25.00
2007,07,13,14,52,25.10
2007,07,13,14,53,25.10
2007,07,13,14,54,25.10
2007,07,13,14,55,25.10
2007,07,13,14,56,25.10
2007,07,13,14,57,25.00
2007,07,13,14,58,25.00
2007,07,13,14,59,25.00
2007,07,13,15,00,24.90
2007,07,13,15,01,24.90
2007,07,13,15,02,24.90
2007,07,13,15,03,24.90
2007,07,13,15,04,24.90
2007,07,13,15,05,25.00
2007,07,13,15,06,25.00
2007,07,13,15,07,25.00
2007,07,13,15,08,25.10
2007,07,13,15,09,25.20
2007,07,13,15,10,25.20
2007,07,13,15,11,25.30
2007,07,13,15,12,25.30
2007,07,13,15,13,25.30
2007,07,13,15,14,25.30
2007,07,13,15,15,25.20
2007,07,13,15,16,25.20
2007,07,13,15,17,25.20
2007,07,13,15,18,25.10
2007,07,13,15,19,25.10
2007,07,13,15,20,25.10
2007,07,13,15,21,25.20
2007,07,13,15,22,25.20
2007,07,13,15,23,25.30
2007,07,13,15,24,25.30
2007,07,13,15,25,25.40
2007,07,13,15,26,25.50
2007,07,13,15,27,25.50
2007,07,13,15,28,25.50
2007,07,13,15,29,25.50
2007,07,13,15,30,25.50
2007,07,13,15,31,25.60
2007,07,13,15,32,25.60
2007,07,13,15,33,25.70
2007,07,13,15,34,25.70
2007,07,13,15,35,25.70
2007,07,13,15,36,25.70
2007,07,13,15,37,25.70
2007,07,13,15,38,25.50
2007,07,13,15,39,25.40
2007,07,13,15,40,25.20
2007,07,13,15,41,25.10
2007,07,13,15,42,24.90
2007,07,13,15,43,24.80
2007,07,13,15,44,24.70
2007,07,13,15,45,24.70
2007,07,13,15,46,24.70
2007,07,13,15,47,24.60
2007,07,13,15,48,24.60
2007,07,13,15,49,24.70
2007,07,13,15,50,24.70
2007,07,13,15,51,24.70
2007,07,13,15,52,24.70
2007,07,13,15,53,24.60
2007,07,13,15,54,24.60
2007,07,13,15,55,24.60
2007,07,13,15,56,24.60
2007,07,13,15,57,24.60
2007,07,13,15,58,24.60
2007,07,13,15,59,24.60
2007,07,13,16,00,24.70
2007,07,13,16,01,24.70
2007,07,13,16,02,24.80
2007,07,13,16,03,24.80
2007,07,13,16,04,24.80
2007,07,13,16,05,24.80
2007,07,13,16,06,24.80
2007,07,13,16,07,24.80
2007,07,13,16,08,24.90
2007,07,13,16,09,24.90
2007,07,13,16,10,25.00
2007,07,13,16,11,25.00
2007,07,13,16,12,24.90
2007,07,13,16,13,24.90
2007,07,13,16,14,24.90
2007,07,13,16,15,24.90
2007,07,13,16,16,24.80
2007,07,13,16,17,24.70
2007,07,13,16,18,24.70
2007,07,13,16,19,24.70
2007,07,13,16,20,24.70
2007,07,13,16,21,24.70
2007,07,13,16,22,24.80
2007,07,13,16,23,24.80
2007,07,13,16,24,24.80
2007,07,13,16,25,24.70
2007,07,13,16,26,24.70
2007,07,13,16,27,24.70
2007,07,13,16,28,24.70
2007,07,13,16,29,24.70
2007,07,13,16,30,24.70
2007,07,13,16,31,24.70
2007,07,13,16,32,24.60
2007,07,13,16,33,24.60
2007,07,13,16,34,24.70
2007,07,13,16,35,24.70
2007,07,13,16,36,24.70
2007,07,13,16,37,24.80
2007,07,13,16,38,24.80
2007,07,13,16,39,24.90
2007,07,13,16,40,24.90
2007,07,13,16,41,25.00
2007,07,13,16,42,25.00
2007,07,13,16,43,25.10
2007,07,13,16,44,25.10
2007,07,13,16,45,25.10
2007,07,13,16,46,25.20
2007,07,13,16,47,25.30
2007,07,13,16,48,25.40
2007,07,13,16,49,25.40
2007,07,13,16,50,25.40
2007,07,13,16,51,25.40
2007,07,13,16,52,25.40
2007,07,13,16,53,25.40
2007,07,13,16,54,25.30
2007,07,13,16,55,25.30
2007,07,13,16,56,25.30
2007,07,13,16,57,25.30
2007,07,13,16,58,25.30
2007,07,13,16,59,25.30
2007,07,13,17,00,25.30
2007,07,13,17,01,25.30
2007,07,13,17,02,25.30
2007,07,13,17,03,25.30
2007,07,13,17,04,25.30
2007,07,13,17,05,25.30
2007,07,13,17,06,25.20
2007,07,13,17,07,25.20
2007,07,13,17,08,25.20
2007,07,13,17,09,25.20
2007,07,13,17,10,25.10
2007,07,13,17,11,25.10
2007,07,13,17,12,25.10
2007,07,13,17,13,25.10
2007,07,13,17,14,25.10
2007,07,13,17,15,25.10
2007,07,13,17,16,25.10
2007,07,13,17,17,25.10
2007,07,13,17,18,25.10
2007,07,13,17,19,25.10